QPF
0.00 0.00 0.00 0.00 0.00 0.01 0.01 0.02 0.02 0.01 0.01 0.00 0.00 0.00 0.00 0.00 0.00 0.01 0.01 0.01 0.01 0.01 0.02 0.02 0.02 0.02 0.02 0.02 0.02 0.02 0.03 0.03 0.04 0.04 0.04 0.04 0.04 0.04
0.00 0.00 0.00 0.00 0.00 0.00 0.01 0.01 0.02 0.02 0.01 0.00 0.00 0.00 0.00 0.00 0.00 0.01 0.01 0.01 0.01 0.01 0.02 0.02 0.02 0.02 0.02 0.02 0.02 0.02 0.02 0.02 0.02 0.02 0.02 0.03 0.03 0.04
0.00 0.00 0.00 0.00 0.00 0.00 0.00 0.01 0.01 0.02 0.02 0.01 0.00 0.00 0.00 0.00 0.00 0.01 0.01 0.01 0.01 0.01 0.02 0.02 0.02 0.02 0.02 0.02 0.02 0.02 0.02 0.02 0.02 0.02 0.02 0.02 0.02 0.02
0.00 0.00 0.00 0.00 0.00 0.00 0.00 0.00 0.01 0.01 0.01 0.01 0.00 0.00 0.00 0.00 0.00 0.01 0.02 0.02 0.02 0.02 0.03 0.03 0.03 0.03 0.03 0.03 0.02 0.02 0.02 0.02 0.02 0.02 0.02 0.02 0.02 0.02
0.00 0.00 0.00 0.00 0.01 0.01 0.01 0.00 0.01 0.01 0.01 0.02 0.01 0.00 0.00 0.00 0.00 0.01 0.02 0.03 0.03 0.03 0.03 0.04 0.04 0.04 0.04 0.03 0.03 0.02 0.02 0.02 0.02 0.02 0.02 0.02 0.02 0.02
0.01 0.01 0.01 0.01 0.01 0.01 0.01 0.01 0.01 0.01 0.01 0.02 0.01 0.01 0.01 0.01 0.01 0.01 0.02 0.03 0.03 0.04 0.03 0.03 0.04 0.05 0.04 0.04 0.03 0.02 0.02 0.02 0.02 0.02 0.02 0.02 0.02 0.03
0.01 0.01 0.01 0.01 0.01 0.01 0.01 0.01 0.01 0.01 0.02 0.02 0.02 0.01 0.01 0.01 0.01 0.02 0.02 0.03 0.04 0.04 0.04 0.04 0.04 0.03 0.03 0.03 0.03 0.03 0.03 0.02 0.02 0.02 0.02 0.02 0.03 0.03
0.02 0.02 0.01 0.01 0.01 0.01 0.01 0.02 0.02 0.02 0.03 0.03 0.02 0.02 0.01 0.01 0.01 0.02 0.03 0.04 0.05 0.04 0.04 0.05 0.04 0.04 0.03 0.03 0.03 0.03 0.02 0.02 0.02 0.02 0.02 0.02 0.03 0.03
0.02 0.02 0.02 0.02 0.02 0.01 0.01 0.01 0.02 0.02 0.02 0.03 0.03 0.02 0.02 0.02 0.02 0.02 0.02 0.03 0.03 0.04 0.04 0.05 0.05 0.05 0.04 0.04 0.04 0.04 0.04 0.04 0.03 0.02 0.02 0.03 0.03 0.03
0.02 0.03 0.03 0.03 0.03 0.03 0.02 0.02 0.01 0.01 0.01 0.01 0.02 0.02 0.02 0.03 0.03 0.03 0.02 0.03 0.03 0.04 0.04 0.04 0.05 0.05 0.04 0.04 0.05 0.05 0.05 0.05 0.05 0.04 0.03 0.03 0.03 0.03
0.02 0.03 0.03 0.03 0.03 0.03 0.02 0.02 0.02 0.01 0.01 0.02 0.02 0.02 0.02 0.04 0.04 0.04 0.04 0.04 0.05 0.05 0.05 0.05 0.05 0.05 0.05 0.05 0.06 0.05 0.04 0.04 0.04 0.04 0.04 0.03 0.03 0.03
0.02 0.02 0.02 0.03 0.03 0.03 0.03 0.03 0.02 0.02 0.02 0.02 0.02 0.02 0.03 0.04 0.05 0.04 0.04 0.05 0.05 0.05 0.05 0.05 0.05 0.05 0.05 0.05 0.04 0.04 0.03 0.03 0.03 0.03 0.04 0.04 0.03 0.02
0.02 0.02 0.02 0.02 0.03 0.03 0.03 0.03 0.03 0.03 0.03 0.03 0.03 0.03 0.03 0.04 0.04 0.04 0.04 0.04 0.05 0.05 0.04 0.04 0.05 0.05 0.05 0.05 0.04 0.03 0.03 0.03 0.02 0.02 0.03 0.03 0.03 0.03
0.02 0.02 0.01 0.02 0.02 0.02 0.03 0.03 0.03 0.03 0.03 0.03 0.03 0.03 0.04 0.04 0.04 0.04 0.04 0.04 0.04 0.05 0.04 0.05 0.06 0.05 0.05 0.05 0.05 0.04 0.04 0.03 0.03 0.02 0.02 0.03 0.03 0.03
0.02 0.02 0.02 0.02 0.02 0.03 0.03 0.03 0.03 0.03 0.03 0.04 0.04 0.04 0.04 0.04 0.04 0.04 0.04 0.04 0.04 0.05 0.05 0.06 0.06 0.06 0.06 0.06 0.06 0.05 0.04 0.04 0.03 0.03 0.03 0.03 0.03 0.03
0.02 0.02 0.02 0.02 0.03 0.03 0.03 0.03 0.03 0.03 0.04 0.04 0.04 0.04 0.04 0.04 0.04 0.04 0.04 0.04 0.04 0.04 0.05 0.05 0.05 0.06 0.06 0.06 0.06 0.05 0.04 0.04 0.03 0.03 0.03 0.03 0.04 0.04
0.02 0.02 0.02 0.02 0.02 0.02 0.03 0.03 0.03 0.03 0.03 0.03 0.03 0.04 0.04 0.04 0.04 0.04 0.04 0.04 0.04 0.04 0.04 0.05 0.05 0.05 0.05 0.05 0.05 0.04 0.03 0.03 0.03 0.03 0.03 0.03 0.03 0.03
0.03 0.03 0.02 0.02 0.02 0.02 0.02 0.02 0.02 0.02 0.02 0.03 0.03 0.03 0.03 0.04 0.04 0.04 0.04 0.04 0.05 0.04 0.04 0.04 0.04 0.04 0.05 0.05 0.04 0.04 0.03 0.03 0.02 0.02 0.02 0.02 0.02 0.02
0.02 0.02 0.02 0.02 0.02 0.02 0.02 0.02 0.02 0.02 0.02 0.02 0.03 0.03 0.02 0.03 0.03 0.04 0.04 0.04 0.04 0.04 0.04 0.04 0.03 0.04 0.04 0.04 0.04 0.03 0.03 0.02 0.02 0.01 0.01 0.01 0.02 0.02
0.01 0.02 0.02 0.02 0.02 0.02 0.02 0.02 0.01 0.02 0.02 0.02 0.03 0.02 0.02 0.02 0.02 0.03 0.03 0.03 0.03 0.03 0.04 0.04 0.04 0.03 0.04 0.04 0.04 0.03 0.02 0.02 0.01 0.01 0.01 0.01 0.01 0.01
0.01 0.01 0.01 0.01 0.01 0.01 0.01 0.01 0.01 0.01 0.01 0.02 0.02 0.02 0.02 0.02 0.02 0.02 0.02 0.03 0.03 0.03 0.03 0.04 0.04 0.03 0.03 0.03 0.02 0.02 0.02 0.01 0.01 0.02 0.01 0.01 0.01 0.01
0.02 0.02 0.02 0.01 0.02 0.01 0.01 0.01 0.01 0.01 0.01 0.01 0.01 0.02 0.02 0.02 0.02 0.02 0.02 0.03 0.02 0.03 0.03 0.04 0.03 0.03 0.02 0.02 0.02 0.02 0.01 0.01 0.01 0.01 0.01 0.02 0.02 0.03
0.02 0.02 0.02 0.02 0.02 0.02 0.02 0.01 0.01 0.01 0.01 0.01 0.01 0.02 0.02 0.02 0.02 0.01 0.02 0.02 0.02 0.02 0.03 0.03 0.03 0.02 0.02 0.01 0.01 0.01 0.01 0.01 0.01 0.02 0.02 0.02 0.02 0.02
MSLP
1015.88 1015.99 1016.09 1016.15 1016.13 1016.02 1015.80 1015.49 1015.11 1014.69 1014.26 1013.86 1013.50 1013.20 1012.95 1012.76 1012.60 1012.46 1012.33 1012.20 1012.07 1011.93 1011.80 1011.67 1011.54 1011.41 1011.27 1011.11 1010.94 1010.75 1010.54 1010.33 1010.12 1009.92 1009.75 1009.61 1009.51 1009.45
1015.18 1015.20 1015.23 1015.23 1015.19 1015.09 1014.92 1014.68 1014.40 1014.10 1013.79 1013.51 1013.25 1013.04 1012.85 1012.68 1012.53 1012.38 1012.22 1012.05 1011.89 1011.73 1011.58 1011.45 1011.34 1011.23 1011.13 1011.03 1010.91 1010.78 1010.62 1010.46 1010.28 1010.10 1009.94 1009.78 1009.64 1009.51
1014.47 1014.41 1014.37 1014.32 1014.26 1014.16 1014.03 1013.87 1013.69 1013.51 1013.33 1013.17 1013.02 1012.89 1012.77 1012.63 1012.49 1012.32 1012.13 1011.93 1011.72 1011.53 1011.35 1011.20 1011.08 1010.98 1010.89 1010.81 1010.73 1010.64 1010.54 1010.42 1010.30 1010.17 1010.04 1009.90 1009.75 1009.60
1013.78 1013.66 1013.56 1013.47 1013.39 1013.30 1013.20 1013.11 1013.01 1012.93 1012.86 1012.81 1012.76 1012.71 1012.64 1012.54 1012.41 1012.23 1012.03 1011.80 1011.56 1011.33 1011.12 1010.94 1010.79 1010.67 1010.57 1010.49 1010.42 1010.35 1010.28 1010.20 1010.13 1010.05 1009.97 1009.88 1009.77 1009.63
1013.10 1012.94 1012.81 1012.69 1012.59 1012.50 1012.43 1012.38 1012.35 1012.34 1012.35 1012.37 1012.40 1012.40 1012.39 1012.32 1012.21 1012.05 1011.85 1011.61 1011.36 1011.12 1010.88 1010.68 1010.50 1010.34 1010.22 1010.10 1010.01 1009.93 1009.86 1009.80 1009.76 1009.74 1009.71 1009.67 1009.61 1009.52
1012.44 1012.26 1012.10 1011.97 1011.85 1011.76 1011.70 1011.66 1011.66 1011.68 1011.73 1011.80 1011.87 1011.92 1011.94 1011.91 1011.83 1011.71 1011.53 1011.33 1011.10 1010.87 1010.64 1010.42 1010.22 1010.03 1009.86 1009.70 1009.56 1009.43 1009.34 1009.27 1009.24 1009.24 1009.26 1009.27 1009.27 1009.23
1011.77 1011.59 1011.42 1011.27 1011.14 1011.03 1010.95 1010.91 1010.90 1010.93 1010.99 1011.06 1011.15 1011.22 1011.27 1011.28 1011.25 1011.17 1011.06 1010.91 1010.74 1010.55 1010.36 1010.15 1009.95 1009.73 1009.52 1009.30 1009.10 1008.93 1008.78 1008.68 1008.63 1008.63 1008.67 1008.73 1008.77 1008.79
1011.08 1010.90 1010.72 1010.56 1010.41 1010.28 1010.18 1010.11 1010.07 1010.07 1010.11 1010.17 1010.24 1010.32 1010.39 1010.43 1010.46 1010.45 1010.41 1010.35 1010.26 1010.14 1010.01 1009.84 1009.65 1009.43 1009.19 1008.94 1008.69 1008.45 1008.25 1008.10 1008.02 1008.00 1008.03 1008.10 1008.18 1008.23
1010.37 1010.18 1009.99 1009.82 1009.65 1009.50 1009.37 1009.27 1009.19 1009.15 1009.15 1009.17 1009.22 1009.29 1009.37 1009.44 1009.51 1009.57 1009.61 1009.63 1009.64 1009.61 1009.55 1009.44 1009.29 1009.10 1008.86 1008.59 1008.30 1008.03 1007.79 1007.60 1007.47 1007.42 1007.43 1007.48 1007.55 1007.62
1009.62 1009.43 1009.24 1009.07 1008.89 1008.72 1008.57 1008.43 1008.32 1008.24 1008.19 1008.17 1008.19 1008.23 1008.30 1008.39 1008.48 1008.59 1008.69 1008.79 1008.87 1008.93 1008.94 1008.91 1008.82 1008.67 1008.46 1008.21 1007.93 1007.65 1007.40 1007.18 1007.03 1006.94 1006.91 1006.93 1006.97 1007.01
1008.88 1008.69 1008.51 1008.34 1008.17 1008.00 1007.83 1007.68 1007.54 1007.42 1007.33 1007.27 1007.24 1007.25 1007.29 1007.36 1007.46 1007.58 1007.71 1007.85 1007.98 1008.09 1008.16 1008.19 1008.17 1008.08 1007.94 1007.74 1007.52 1007.27 1007.04 1006.84 1006.67 1006.56 1006.49 1006.47 1006.46 1006.45
1008.18 1008.01 1007.85 1007.70 1007.55 1007.39 1007.23 1007.07 1006.92 1006.78 1006.65 1006.54 1006.47 1006.43 1006.42 1006.46 1006.52 1006.61 1006.72 1006.85 1006.98 1007.11 1007.22 1007.29 1007.33 1007.31 1007.25 1007.14 1006.99 1006.83 1006.66 1006.50 1006.36 1006.24 1006.15 1006.07 1006.00 1005.93
1007.59 1007.44 1007.31 1007.20 1007.08 1006.96 1006.82 1006.67 1006.51 1006.34 1006.19 1006.04 1005.92 1005.82 1005.75 1005.71 1005.70 1005.72 1005.77 1005.84 1005.93 1006.03 1006.13 1006.22 1006.30 1006.34 1006.37 1006.36 1006.32 1006.26 1006.18 1006.10 1006.01 1005.91 1005.81 1005.69 1005.57 1005.43
1007.14 1007.03 1006.95 1006.88 1006.81 1006.71 1006.60 1006.46 1006.30 1006.13 1005.95 1005.76 1005.58 1005.42 1005.27 1005.14 1005.03 1004.95 1004.90 1004.88 1004.88 1004.91 1004.97 1005.04 1005.13 1005.22 1005.32 1005.40 1005.48 1005.54 1005.57 1005.58 1005.55 1005.49 1005.40 1005.27 1005.10 1004.91
1006.87 1006.81 1006.78 1006.75 1006.72 1006.65 1006.56 1006.43 1006.27 1006.08 1005.87 1005.65 1005.42 1005.19 1004.96 1004.74 1004.53 1004.33 1004.16 1004.01 1003.90 1003.83 1003.81 1003.83 1003.91 1004.02 1004.16 1004.33 1004.50 1004.67 1004.80 1004.90 1004.95 1004.94 1004.86 1004.73 1004.54 1004.30
1006.79 1006.78 1006.79 1006.79 1006.78 1006.73 1006.63 1006.50 1006.33 1006.12 1005.89 1005.64 1005.36 1005.08 1004.78 1004.48 1004.17 1003.86 1003.57 1003.30 1003.06 1002.88 1002.76 1002.71 1002.74 1002.84 1003.00 1003.21 1003.45 1003.69 1003.91 1004.08 1004.20 1004.23 1004.18 1004.05 1003.85 1003.59
1006.89 1006.91 1006.94 1006.95 1006.93 1006.87 1006.76 1006.60 1006.41 1006.18 1005.92 1005.64 1005.34 1005.02 1004.68 1004.31 1003.93 1003.54 1003.14 1002.76 1002.41 1002.12 1001.90 1001.76 1001.72 1001.78 1001.92 1002.14 1002.40 1002.68 1002.95 1003.17 1003.32 1003.38 1003.35 1003.23 1003.03 1002.76
1007.11 1007.15 1007.17 1007.16 1007.10 1007.00 1006.85 1006.66 1006.42 1006.17 1005.89 1005.60 1005.29 1004.95 1004.59 1004.20 1003.78 1003.33 1002.87 1002.41 1001.97 1001.58 1001.27 1001.04 1000.93 1000.92 1001.01 1001.20 1001.44 1001.72 1001.98 1002.21 1002.37 1002.45 1002.42 1002.30 1002.09 1001.83
1007.41 1007.42 1007.41 1007.35 1007.23 1007.07 1006.85 1006.61 1006.34 1006.05 1005.76 1005.46 1005.15 1004.83 1004.48 1004.09 1003.66 1003.19 1002.70 1002.19 1001.69 1001.24 1000.84 1000.54 1000.35 1000.27 1000.30 1000.42 1000.62 1000.85 1001.09 1001.29 1001.42 1001.48 1001.44 1001.30 1001.09 1000.81
1007.71 1007.68 1007.60 1007.47 1007.27 1007.03 1006.74 1006.44 1006.12 1005.81 1005.51 1005.22 1004.92 1004.62 1004.29 1003.92 1003.51 1003.05 1002.55 1002.03 1001.50 1001.00 1000.56 1000.20 999.94 999.79 999.75 999.81 999.94 1000.11 1000.28 1000.43 1000.52 1000.53 1000.46 1000.29 1000.06 999.76
1007.98 1007.88 1007.72 1007.49 1007.21 1006.88 1006.52 1006.15 1005.80 1005.46 1005.15 1004.86 1004.59 1004.30 1004.00 1003.66 1003.28 1002.84 1002.35 1001.83 1001.30 1000.78 1000.31 999.92 999.62 999.42 999.32 999.31 999.37 999.47 999.58 999.66 999.69 999.64 999.52 999.31 999.04 998.72
1008.15 1007.98 1007.73 1007.41 1007.04 1006.63 1006.21 1005.79 1005.39 1005.03 1004.71 1004.42 1004.15 1003.88 1003.60 1003.28 1002.91 1002.49 1002.02 1001.51 1000.98 1000.47 1000.00 999.60 999.27 999.05 998.91 998.86 998.87 998.91 998.96 998.97 998.94 998.83 998.65 998.40 998.08 997.71
1008.23 1007.98 1007.65 1007.25 1006.80 1006.32 1005.84 1005.37 1004.94 1004.56 1004.22 1003.92 1003.64 1003.37 1003.08 1002.76 1002.39 1001.97 1001.51 1001.01 1000.51 1000.01 999.56 999.17 998.86 998.63 998.49 998.42 998.40 998.40 998.40 998.36 998.27 998.11 997.88 997.57 997.20 996.80
Thickness
5471 5470 5468 5468 5467 5466 5465 5464 5464 5469 5476 5477 5475 5476 5476 5477 5478 5479 5481 5483 5484 5486 5488 5490 5491 5492 5493 5493 5494 5495 5495 5495 5495 5495 5495 5495 5495 5496
5459 5458 5457 5456 5455 5454 5453 5452 5451 5452 5459 5465 5462 5462 5463 5464 5465 5466 5468 5470 5472 5473 5475 5477 5478 5479 5480 5481 5482 5482 5483 5483 5483 5483 5483 5484 5484 5484
5447 5446 5446 5444 5443 5442 5441 5440 5439 5439 5443 5451 5449 5450 5450 5451 5453 5454 5456 5457 5459 5461 5463 5464 5466 5467 5468 5469 5470 5470 5471 5471 5471 5472 5472 5472 5473 5474
5435 5434 5433 5432 5431 5430 5429 5429 5428 5428 5430 5436 5438 5437 5437 5438 5440 5442 5444 5445 5447 5450 5451 5453 5455 5456 5457 5458 5459 5459 5460 5460 5460 5461 5461 5462 5462 5463
5423 5423 5422 5420 5420 5419 5419 5418 5418 5418 5419 5421 5425 5425 5425 5426 5428 5430 5432 5433 5435 5438 5440 5442 5443 5445 5446 5447 5448 5449 5449 5450 5450 5450 5450 5450 5451 5452
5413 5412 5411 5411 5410 5409 5409 5409 5408 5408 5408 5409 5412 5414 5414 5415 5415 5417 5420 5422 5424 5426 5428 5430 5432 5433 5435 5436 5438 5439 5439 5439 5440 5440 5440 5440 5441 5442
5403 5402 5402 5401 5401 5401 5401 5400 5399 5398 5398 5399 5402 5403 5404 5404 5405 5406 5408 5411 5413 5415 5417 5419 5421 5423 5423 5425 5427 5428 5429 5429 5430 5430 5430 5430 5431 5432
5394 5393 5392 5392 5392 5392 5392 5392 5390 5390 5390 5390 5392 5393 5395 5395 5395 5395 5396 5399 5403 5405 5405 5409 5410 5412 5414 5415 5416 5418 5419 5420 5420 5420 5420 5421 5422 5423
5386 5385 5385 5384 5383 5383 5383 5383 5382 5381 5381 5381 5383 5384 5385 5386 5386 5386 5386 5388 5391 5394 5394 5399 5401 5403 5405 5406 5407 5409 5410 5411 5411 5411 5412 5412 5413 5415
5379 5378 5377 5376 5375 5375 5375 5374 5373 5373 5373 5374 5375 5376 5376 5377 5377 5377 5378 5379 5382 5384 5385 5388 5391 5393 5396 5397 5399 5400 5401 5402 5402 5403 5404 5404 5405 5406
5371 5370 5369 5369 5369 5368 5367 5366 5366 5366 5365 5366 5367 5368 5368 5369 5369 5369 5369 5370 5374 5376 5377 5378 5382 5384 5386 5388 5390 5392 5393 5394 5395 5395 5396 5397 5398 5399
5365 5364 5363 5363 5363 5362 5360 5359 5358 5358 5358 5359 5360 5360 5361 5361 5362 5363 5363 5364 5365 5368 5370 5371 5373 5374 5376 5379 5380 5382 5384 5385 5387 5387 5388 5389 5390 5391
5358 5358 5357 5357 5357 5356 5355 5353 5352 5352 5351 5351 5351 5352 5353 5354 5355 5356 5357 5358 5359 5361 5363 5364 5365 5366 5367 5369 5372 5374 5376 5377 5378 5379 5381 5382 5383 5384
5352 5351 5351 5351 5350 5350 5348 5348 5347 5345 5344 5344 5344 5345 5346 5348 5349 5351 5352 5353 5354 5356 5357 5358 5359 5360 5361 5362 5364 5366 5368 5370 5371 5372 5373 5375 5376 5377
5346 5346 5345 5345 5344 5343 5342 5341 5339 5338 5337 5337 5338 5339 5339 5341 5343 5344 5346 5347 5348 5349 5351 5353 5355 5356 5357 5357 5359 5360 5361 5362 5364 5365 5366 5368 5369 5371
5340 5340 5339 5338 5337 5336 5335 5334 5332 5332 5331 5332 5332 5332 5333 5335 5336 5338 5339 5341 5342 5343 5345 5347 5349 5350 5351 5352 5353 5354 5355 5356 5357 5359 5360 5362 5364 5366
5335 5334 5333 5332 5331 5330 5329 5327 5326 5326 5326 5326 5327 5327 5328 5329 5330 5332 5333 5335 5336 5337 5339 5341 5343 5345 5346 5347 5348 5349 5350 5351 5352 5353 5355 5357 5359 5361
5330 5328 5327 5326 5325 5324 5323 5322 5321 5321 5321 5321 5322 5322 5323 5324 5324 5326 5327 5329 5331 5332 5333 5335 5337 5339 5340 5341 5342 5344 5345 5346 5347 5348 5350 5351 5354 5355
5324 5323 5321 5320 5320 5319 5318 5317 5316 5316 5316 5316 5317 5317 5318 5319 5320 5321 5322 5324 5325 5327 5328 5330 5332 5334 5335 5336 5336 5339 5340 5341 5343 5344 5345 5346 5348 5351
5318 5317 5316 5315 5315 5314 5313 5313 5312 5312 5312 5313 5313 5313 5314 5315 5315 5316 5317 5319 5321 5322 5324 5325 5327 5328 5330 5331 5331 5333 5336 5337 5339 5340 5341 5342 5344 5347
5313 5312 5312 5311 5310 5310 5309 5309 5309 5309 5309 5309 5309 5310 5310 5310 5311 5312 5313 5315 5316 5318 5319 5320 5322 5324 5325 5327 5328 5330 5331 5334 5335 5336 5337 5338 5340 5343
5309 5309 5308 5307 5307 5306 5306 5306 5306 5306 5306 5306 5306 5306 5306 5306 5307 5308 5309 5310 5312 5313 5314 5316 5318 5320 5321 5323 5324 5326 5327 5330 5332 5334 5335 5336 5337 5339
5306 5305 5305 5304 5304 5303 5303 5303 5303 5302 5302 5302 5302 5303 5303 5303 5304 5304 5305 5306 5307 5308 5310 5312 5314 5315 5317 5318 5320 5321 5323 5325 5327 5330 5333 5335 5337 5339